| time (UTC) | temp F | wind direction | speed knots | gust knots | rain 1hr in | rain 24hr in | rain mn in | humidity % | barometer mb |
| 20260509210927 | 75 | 130 | 0.0 | 5.2 | 0.00 | 0.00 | 0.00 | 51 | 1009.1 |
| 20260509200926 | 74 | 180 | 0.9 | 5.2 | 0.00 | 0.00 | 0.00 | 55 | 1009.2 |
| 20260509190923 | 72 | 213 | 1.7 | 6.1 | 0.00 | 0.00 | 0.00 | 55 | 1009.9 |
| 20260509180921 | 70 | 355 | 0.9 | 4.3 | 0.00 | 0.00 | 0.00 | 57 | 1010.7 |
| 20260509170918 | 70 | 346 | 0.9 | 3.5 | 0.00 | 0.00 | 0.00 | 55 | 1011.6 |
| 20260509160913 | 67 | 5 | 1.7 | 3.5 | 0.00 | 0.00 | 0.00 | 55 | 1011.7 |
| 20260509150912 | 64 | 282 | 0.9 | 2.6 | 0.00 | 0.00 | 0.00 | 59 | 1012.0 |
| 20260509140906 | 60 | 172 | 0.9 | 3.5 | 0.00 | 0.00 | 0.00 | 63 | 1012.4 |
| 20260509130900 | 59 | 194 | 0.9 | 2.6 | 0.00 | 0.00 | 0.00 | 64 | 1012.4 |
| 20260509120856 | 58 | 198 | 0.0 | 1.7 | 0.00 | 0.00 | 0.00 | 68 | 1012.6 |
| 20260509110849 | 57 | 198 | 0.0 | 0.9 | 0.00 | 0.00 | 0.00 | 67 | 1011.7 |
| 20260509103848 | 57 | 198 | 0.0 | 4.3 | 0.00 | 0.00 | 0.00 | 64 | 1011.5 |
| 20260509090832 | 57 | 264 | 0.0 | 4.3 | 0.00 | 0.00 | 0.00 | 62 | 1011.6 |
| 20260509080830 | 58 | 186 | 0.9 | 4.3 | 0.00 | 0.00 | 0.00 | 59 | 1012.0 |
| 20260509070831 | 58 | 190 | 0.9 | 2.6 | 0.00 | 0.00 | 0.00 | 58 | 1012.1 |
| 20260509063825 | 58 | 190 | 0.0 | 2.6 | 0.00 | 0.00 | 0.00 | 60 | 1012.4 |
| 20260509050819 | 59 | 177 | 0.9 | 3.5 | 0.00 | 0.00 | 0.00 | 56 | 1012.6 |
| 20260509030813 | 61 | 231 | 0.9 | 1.7 | 0.00 | 0.00 | 0.00 | 54 | 1012.8 |
| 20260509020813 | 57 | 239 | 0.0 | 0.0 | 0.00 | 0.00 | 0.00 | 62 | 1012.9 |
| 20260509010806 | 62 | 239 | 0.0 | 1.7 | 0.00 | 0.00 | 0.00 | 54 | 1012.7 |
| 20260509000742 | 66 | 259 | 0.0 | 1.7 | 0.00 | 0.00 | 0.00 | 48 | 1012.5 |
| 20260508230733 | 69 | 261 | 0.0 | 3.5 | 0.00 | 0.00 | 0.00 | 37 | 1011.9 |